Time,TemperatureF,DewpointF,PressureIn,WindDirection,WindDirectionDegrees,WindSpeedMPH,WindSpeedGustMPH,Humidity,HourlyPrecipIn,Conditions,Clouds,dailyrainin,SoftwareType,DateUTC
2011-02-26 00:03:00,44.1,19.9,29.69,WSW,247,9.6,9.6,38,0.00,,,0.00,open2300-1.11,2011-02-26 07:03:00,
2011-02-26 00:13:00,43.9,19.1,29.69,WSW,247,7.2,12.8,37,0.00,,,0.00,open2300-1.11,2011-02-26 07:13:00,
2011-02-26 00:23:00,43.7,18.9,29.69,West,270,5.6,7.6,37,0.00,,,0.00,open2300-1.11,2011-02-26 07:23:00,
2011-02-26 00:33:00,43.5,19.4,29.69,West,270,2.0,9.4,38,0.00,,,0.00,open2300-1.11,2011-02-26 07:33:00,
2011-02-26 00:43:00,43.3,18.6,29.70,West,270,1.6,9.6,37,0.00,,,0.00,open2300-1.11,2011-02-26 07:43:00,
2011-02-26 00:53:00,43.2,18.5,29.70,SW,225,2.5,6.5,37,0.00,,,0.00,open2300-1.11,2011-02-26 07:53:00,
2011-02-26 01:03:00,43.0,19.0,29.70,WSW,247,2.5,6.5,38,0.00,,,0.00,open2300-1.11,2011-02-26 08:03:00,
2011-02-26 01:13:00,42.6,18.0,29.69,WSW,247,3.1,8.3,37,0.00,,,0.00,open2300-1.11,2011-02-26 08:13:00,
2011-02-26 01:23:00,42.6,18.0,29.69,SSW,202,8.5,8.5,37,0.00,,,0.00,open2300-1.11,2011-02-26 08:23:00,
2011-02-26 01:33:00,42.4,17.1,29.69,SW,225,4.0,8.5,36,0.00,,,0.00,open2300-1.11,2011-02-26 08:33:00,
2011-02-26 01:43:00,42.4,16.5,29.69,West,270,4.7,11.2,35,0.00,,,0.00,open2300-1.11,2011-02-26 08:43:00,
2011-02-26 01:53:00,42.3,16.3,29.68,WSW,247,6.0,7.8,35,0.00,,,0.00,open2300-1.11,2011-02-26 08:53:00,
2011-02-26 02:03:00,42.1,16.2,29.68,WSW,247,5.8,9.2,35,0.00,,,0.00,open2300-1.11,2011-02-26 09:03:00,
2011-02-26 02:13:00,41.9,16.0,29.68,SSW,202,2.7,9.8,35,0.00,,,0.00,open2300-1.11,2011-02-26 09:13:00,
2011-02-26 02:23:00,41.7,15.9,29.68,WSW,247,4.9,5.8,35,0.00,,,0.00,open2300-1.11,2011-02-26 09:23:00,
2011-02-26 02:33:00,41.5,15.7,29.68,South,180,8.9,9.4,35,0.00,,,0.00,open2300-1.11,2011-02-26 09:33:00,
2011-02-26 02:43:00,41.5,16.4,29.68,WSW,247,0.0,8.9,36,0.00,,,0.00,open2300-1.11,2011-02-26 09:43:00,
2011-02-26 02:53:00,41.4,16.2,29.69,West,270,4.7,9.2,36,0.00,,,0.00,open2300-1.11,2011-02-26 09:53:00,
2011-02-26 03:03:00,41.4,16.2,29.68,WSW,247,6.0,6.0,36,0.00,,,0.00,open2300-1.11,2011-02-26 10:03:00,
2011-02-26 03:13:00,41.2,16.7,29.68,West,270,5.6,6.0,37,0.00,,,0.00,open2300-1.11,2011-02-26 10:13:00,
2011-02-26 03:23:00,41.0,15.9,29.67,WSW,247,0.0,5.6,36,0.00,,,0.00,open2300-1.11,2011-02-26 10:23:00,
2011-02-26 03:33:00,41.0,15.9,29.67,SSW,202,3.4,11.0,36,0.00,,,0.00,open2300-1.11,2011-02-26 10:33:00,
2011-02-26 03:43:00,41.2,15.4,29.67,West,270,5.4,10.5,35,0.00,,,0.00,open2300-1.11,2011-02-26 10:43:00,
2011-02-26 03:53:00,41.2,14.8,29.67,SW,225,8.3,12.8,34,0.00,,,0.00,open2300-1.11,2011-02-26 10:53:00,
2011-02-26 04:03:00,41.2,15.4,29.67,WSW,247,4.7,9.8,35,0.00,,,0.00,open2300-1.11,2011-02-26 11:03:00,
2011-02-26 04:13:00,40.8,15.1,29.66,WSW,247,1.8,4.7,35,0.00,,,0.00,open2300-1.11,2011-02-26 11:13:00,
2011-02-26 04:23:00,40.8,15.1,29.67,WSW,247,3.6,7.2,35,0.00,,,0.00,open2300-1.11,2011-02-26 11:23:00,
2011-02-26 04:33:00,40.6,15.6,29.67,WSW,247,1.3,3.6,36,0.00,,,0.00,open2300-1.11,2011-02-26 11:33:00,
2011-02-26 04:43:00,40.5,14.8,29.67,West,270,7.8,7.8,35,0.00,,,0.00,open2300-1.11,2011-02-26 11:43:00,
2011-02-26 04:53:00,40.3,15.9,29.68,WSW,247,1.3,7.8,37,0.00,,,0.00,open2300-1.11,2011-02-26 11:53:00,
2011-02-26 05:03:00,40.1,15.8,29.69,SW,225,3.1,5.8,37,0.00,,,0.00,open2300-1.11,2011-02-26 12:03:00,
2011-02-26 05:13:00,40.1,15.1,29.69,SW,225,3.8,8.9,36,0.00,,,0.00,open2300-1.11,2011-02-26 12:13:00,
2011-02-26 05:23:00,40.3,15.3,29.69,WSW,247,4.2,9.4,36,0.00,,,0.00,open2300-1.11,2011-02-26 12:23:00,
2011-02-26 05:33:00,40.3,14.6,29.70,West,270,4.9,4.9,35,0.00,,,0.00,open2300-1.11,2011-02-26 12:33:00,
2011-02-26 05:43:00,40.3,14.6,29.69,WSW,247,1.6,6.0,35,0.00,,,0.00,open2300-1.11,2011-02-26 12:43:00,
2011-02-26 05:53:00,40.3,15.3,29.70,West,270,6.7,6.7,36,0.00,,,0.00,open2300-1.11,2011-02-26 12:53:00,
2011-02-26 06:03:00,40.3,14.6,29.70,WSW,247,3.8,6.7,35,0.00,,,0.00,open2300-1.11,2011-02-26 13:03:00,
2011-02-26 06:13:00,40.3,15.3,29.70,WSW,247,2.5,4.5,36,0.00,,,0.00,open2300-1.11,2011-02-26 13:13:00,
2011-02-26 06:23:00,40.1,15.1,29.70,SW,225,0.0,5.4,36,0.00,,,0.00,open2300-1.11,2011-02-26 13:23:00,
2011-02-26 06:33:00,40.1,15.1,29.70,WSW,247,5.8,5.8,36,0.00,,,0.00,open2300-1.11,2011-02-26 13:33:00,
2011-02-26 06:43:00,40.1,15.1,29.70,SW,225,0.0,5.8,36,0.00,,,0.00,open2300-1.11,2011-02-26 13:43:00,
2011-02-26 06:53:00,39.9,15.6,29.69,WSW,247,1.6,1.6,37,0.00,,,0.00,open2300-1.11,2011-02-26 13:53:00,
2011-02-26 07:03:00,39.9,15.6,29.70,WSW,247,0.0,1.6,37,0.00,,,0.00,open2300-1.11,2011-02-26 14:03:00,
2011-02-26 07:13:00,39.7,16.7,29.69,NNW,337,0.0,0.0,39,0.00,,,0.00,open2300-1.11,2011-02-26 14:13:00,
2011-02-26 07:23:00,39.6,17.2,29.69,NNW,337,0.0,0.0,40,0.00,,,0.00,open2300-1.11,2011-02-26 14:23:00,
2011-02-26 07:33:00,39.4,17.0,29.71,NNW,337,0.0,0.0,40,0.00,,,0.00,open2300-1.11,2011-02-26 14:33:00,
2011-02-26 07:43:00,39.2,17.4,29.71,ENE,67,5.6,5.6,41,0.00,,,0.00,open2300-1.11,2011-02-26 14:43:00,
2011-02-26 07:53:00,39.0,17.8,29.71,East,90,5.6,6.0,42,0.00,,,0.00,open2300-1.11,2011-02-26 14:53:00,
2011-02-26 08:03:00,39.2,17.9,29.71,East,90,1.1,5.6,42,0.00,,,0.00,open2300-1.11,2011-02-26 15:03:00,
2011-02-26 08:13:00,39.2,17.9,29.70,ENE,67,4.2,6.7,42,0.00,,,0.00,open2300-1.11,2011-02-26 15:13:00,
2011-02-26 08:23:00,39.4,18.1,29.71,NE,45,7.4,7.4,42,0.00,,,0.00,open2300-1.11,2011-02-26 15:23:00,
2011-02-26 08:33:00,39.7,18.4,29.71,East,90,0.0,7.4,42,0.00,,,0.00,open2300-1.11,2011-02-26 15:33:00,
2011-02-26 08:43:00,39.9,18.6,29.70,East,90,1.6,3.1,42,0.00,,,0.00,open2300-1.11,2011-02-26 15:43:00,
2011-02-26 08:53:00,40.3,18.9,29.70,ESE,112,0.0,4.0,42,0.00,,,0.00,open2300-1.11,2011-02-26 15:53:00,
2011-02-26 09:03:00,40.6,18.7,29.69,East,90,5.6,6.9,41,0.00,,,0.00,open2300-1.11,2011-02-26 16:03:00,
2011-02-26 09:13:00,41.0,19.5,29.70,ENE,67,1.6,5.8,42,0.00,,,0.00,open2300-1.11,2011-02-26 16:13:00,
2011-02-26 09:23:00,41.4,19.4,29.70,ENE,67,0.7,2.9,41,0.00,,,0.00,open2300-1.11,2011-02-26 16:23:00,
2011-02-26 09:33:00,41.7,19.1,29.71,SSE,157,0.0,0.7,40,0.00,,,0.00,open2300-1.11,2011-02-26 16:33:00,
2011-02-26 09:43:00,43.0,19.6,29.70,NE,45,2.9,5.8,39,0.00,,,0.00,open2300-1.11,2011-02-26 16:43:00,
2011-02-26 09:53:00,43.9,19.8,29.70,SE,135,0.7,2.9,38,0.00,,,0.00,open2300-1.11,2011-02-26 16:53:00,
2011-02-26 10:03:00,44.8,19.2,29.70,SSE,157,0.9,4.7,36,0.00,,,0.00,open2300-1.11,2011-02-26 17:03:00,
2011-02-26 10:13:00,46.0,20.4,29.69,ENE,67,3.4,6.0,36,0.00,,,0.00,open2300-1.11,2011-02-26 17:13:00,
2011-02-26 10:23:00,46.9,19.9,29.68,SSW,202,2.2,4.2,34,0.00,,,0.00,open2300-1.11,2011-02-26 17:23:00,
2011-02-26 10:33:00,47.5,20.3,29.69,WSW,247,4.2,6.7,34,0.00,,,0.00,open2300-1.11,2011-02-26 17:33:00,
2011-02-26 10:43:00,47.7,18.5,29.70,West,270,4.9,5.6,31,0.00,,,0.00,open2300-1.11,2011-02-26 17:43:00,
2011-02-26 10:53:00,48.0,18.8,29.69,SW,225,5.8,5.8,31,0.00,,,0.00,open2300-1.11,2011-02-26 17:53:00,
2011-02-26 11:03:00,48.0,17.2,29.68,SSW,202,5.4,5.8,29,0.00,,,0.00,open2300-1.11,2011-02-26 18:03:00,
2011-02-26 11:13:00,48.4,18.5,29.68,West,270,3.4,5.4,30,0.00,,,0.00,open2300-1.11,2011-02-26 18:13:00,
2011-02-26 11:23:00,48.9,18.0,29.68,SW,225,2.0,6.3,29,0.00,,,0.00,open2300-1.11,2011-02-26 18:23:00,
2011-02-26 11:33:00,49.1,18.1,29.68,West,270,2.5,5.4,29,0.00,,,0.00,open2300-1.11,2011-02-26 18:33:00,
2011-02-26 11:43:00,49.6,18.5,29.68,South,180,3.6,3.6,29,0.00,,,0.00,open2300-1.11,2011-02-26 18:43:00,
2011-02-26 11:53:00,50.4,17.3,29.68,WNW,292,0.4,9.6,27,0.00,,,0.00,open2300-1.11,2011-02-26 18:53:00,
2011-02-26 12:03:00,50.7,19.5,29.68,SSE,157,0.0,0.7,29,0.00,,,0.00,open2300-1.11,2011-02-26 19:03:00,
2011-02-26 12:13:00,51.4,19.2,29.67,West,270,4.0,5.8,28,0.00,,,0.00,open2300-1.11,2011-02-26 19:13:00,
2011-02-26 12:23:00,51.6,19.4,29.66,SW,225,1.8,4.0,28,0.00,,,0.00,open2300-1.11,2011-02-26 19:23:00,
2011-02-26 12:33:00,51.3,18.1,29.66,WSW,247,5.4,6.7,27,0.00,,,0.00,open2300-1.11,2011-02-26 19:33:00,
2011-02-26 12:43:00,50.7,17.6,29.66,East,90,0.7,9.4,27,0.00,,,0.00,open2300-1.11,2011-02-26 19:43:00,
2011-02-26 12:53:00,50.0,17.0,29.66,SW,225,4.7,6.7,27,0.00,,,0.00,open2300-1.11,2011-02-26 19:53:00,
2011-02-26 13:03:00,49.3,17.3,29.66,WSW,247,5.8,8.5,28,0.00,,,0.00,open2300-1.11,2011-02-26 20:03:00,
2011-02-26 13:13:00,48.2,18.3,29.66,WSW,247,13.0,13.0,30,0.00,,,0.00,open2300-1.11,2011-02-26 20:13:00,
2011-02-26 13:23:00,47.3,19.5,29.66,West,270,0.0,13.0,33,0.00,,,0.00,open2300-1.11,2011-02-26 20:23:00,
2011-02-26 13:33:00,47.1,20.7,29.66,WSW,247,5.8,5.8,35,0.00,,,0.00,open2300-1.11,2011-02-26 20:33:00,
2011-02-26 13:43:00,47.1,20.7,29.66,WSW,247,3.4,8.7,35,0.00,,,0.00,open2300-1.11,2011-02-26 20:43:00,
2011-02-26 13:53:00,46.8,21.7,29.65,WNW,292,2.5,6.0,37,0.00,,,0.00,open2300-1.11,2011-02-26 20:53:00,
2011-02-26 14:03:00,46.2,21.9,29.65,NW,315,4.9,4.9,38,0.00,,,0.00,open2300-1.11,2011-02-26 21:03:00,
2011-02-26 14:13:00,45.9,22.9,29.64,WNW,292,0.0,4.9,40,0.00,,,0.00,open2300-1.11,2011-02-26 21:13:00,
2011-02-26 14:23:00,45.7,23.2,29.64,WNW,292,0.2,1.6,41,0.00,,,0.00,open2300-1.11,2011-02-26 21:23:00,
2011-02-26 14:33:00,45.5,23.1,29.64,WNW,292,0.0,1.1,41,0.00,,,0.00,open2300-1.11,2011-02-26 21:33:00,
2011-02-26 14:43:00,45.5,23.6,29.63,NW,315,0.0,0.0,42,0.00,,,0.00,open2300-1.11,2011-02-26 21:43:00,
2011-02-26 14:53:00,45.5,23.6,29.63,NW,315,0.0,0.0,42,0.00,,,0.00,open2300-1.11,2011-02-26 21:53:00,
2011-02-26 15:03:00,45.5,24.2,29.63,NW,315,0.0,0.0,43,0.00,,,0.00,open2300-1.11,2011-02-26 22:03:00,
2011-02-26 15:13:00,45.3,24.0,29.62,NW,315,0.0,0.0,43,0.00,,,0.00,open2300-1.11,2011-02-26 22:13:00,
2011-02-26 15:23:00,45.3,23.5,29.61,NW,315,0.0,0.0,42,0.00,,,0.00,open2300-1.11,2011-02-26 22:23:00,
2011-02-26 15:33:00,45.3,23.5,29.61,NW,315,0.0,0.0,42,0.00,,,0.00,open2300-1.11,2011-02-26 22:33:00,
2011-02-26 15:43:00,45.3,23.5,29.61,NW,315,0.0,0.0,42,0.00,,,0.00,open2300-1.11,2011-02-26 22:43:00,
2011-02-26 15:53:00,45.3,22.9,29.60,South,180,1.8,1.8,41,0.00,,,0.00,open2300-1.11,2011-02-26 22:53:00,
2011-02-26 16:03:00,45.1,22.8,29.60,South,180,0.0,1.8,41,0.00,,,0.00,open2300-1.11,2011-02-26 23:03:00,
2011-02-26 16:13:00,45.1,22.8,29.60,South,180,0.0,0.0,41,0.00,,,0.00,open2300-1.11,2011-02-26 23:13:00,
2011-02-26 16:23:00,45.1,22.8,29.59,SSE,157,0.0,0.0,41,0.00,,,0.00,open2300-1.11,2011-02-26 23:23:00,
2011-02-26 16:33:00,45.1,22.2,29.59,SSE,157,0.0,0.0,40,0.00,,,0.00,open2300-1.11,2011-02-26 23:33:00,
2011-02-26 16:43:00,45.1,22.2,29.59,SE,135,0.2,0.4,40,0.00,,,0.00,open2300-1.11,2011-02-26 23:43:00,
2011-02-26 16:53:00,45.0,22.1,29.59,SSE,157,1.6,1.6,40,0.00,,,0.00,open2300-1.11,2011-02-26 23:53:00,
2011-02-26 17:03:00,44.8,22.4,29.60,ESE,112,2.2,2.2,41,0.00,,,0.00,open2300-1.11,2011-02-27 00:03:00,
2011-02-26 17:13:00,44.6,22.3,29.60,ESE,112,1.1,2.2,41,0.00,,,0.00,open2300-1.11,2011-02-27 00:13:00,
2011-02-26 17:23:00,44.4,22.1,29.60,ESE,112,0.0,1.1,41,0.00,,,0.00,open2300-1.11,2011-02-27 00:23:00,
2011-02-26 17:33:00,44.4,22.7,29.60,ESE,112,0.0,2.0,42,0.00,,,0.00,open2300-1.11,2011-02-27 00:33:00,
2011-02-26 17:43:00,44.1,22.3,29.60,ESE,112,0.0,0.0,42,0.00,,,0.00,open2300-1.11,2011-02-27 00:43:00,
2011-02-26 17:53:00,43.9,22.2,29.60,ESE,112,0.0,0.0,42,0.00,,,0.00,open2300-1.11,2011-02-27 00:53:00,
2011-02-26 18:03:00,43.5,22.4,29.60,NE,45,3.1,3.1,43,0.00,,,0.00,open2300-1.11,2011-02-27 01:03:00,
2011-02-26 18:13:00,43.2,22.1,29.60,NE,45,3.4,4.7,43,0.00,,,0.00,open2300-1.11,2011-02-27 01:13:00,
2011-02-26 18:23:00,43.0,23.0,29.60,NE,45,1.3,4.9,45,0.00,,,0.00,open2300-1.11,2011-02-27 01:23:00,
2011-02-26 18:33:00,42.6,22.6,29.60,NE,45,0.0,1.3,45,0.00,,,0.00,open2300-1.11,2011-02-27 01:33:00,
2011-02-26 18:43:00,42.4,21.9,29.60,NE,45,0.0,0.0,44,0.00,,,0.00,open2300-1.11,2011-02-27 01:43:00,
2011-02-26 18:53:00,41.7,21.8,29.60,NE,45,0.0,0.0,45,0.00,,,0.00,open2300-1.11,2011-02-27 01:53:00,
2011-02-26 19:03:00,41.4,22.0,29.61,NE,45,0.0,0.0,46,0.00,,,0.00,open2300-1.11,2011-02-27 02:03:00,
2011-02-26 19:13:00,41.0,21.6,29.60,NE,45,0.0,0.0,46,0.00,,,0.00,open2300-1.11,2011-02-27 02:13:00,
2011-02-26 19:23:00,40.8,22.0,29.61,NE,45,0.0,1.8,47,0.00,,,0.00,open2300-1.11,2011-02-27 02:23:00,
2011-02-26 19:33:00,40.5,21.7,29.61,NE,45,0.0,0.0,47,0.00,,,0.00,open2300-1.11,2011-02-27 02:33:00,
2011-02-26 19:43:00,40.1,21.9,29.61,West,270,0.0,1.1,48,0.00,,,0.00,open2300-1.11,2011-02-27 02:43:00,
2011-02-26 19:53:00,39.7,22.1,29.61,WNW,292,0.0,0.0,49,0.00,,,0.00,open2300-1.11,2011-02-27 02:53:00,
2011-02-26 20:03:00,39.2,21.6,29.61,WNW,292,0.0,0.0,49,0.00,,,0.00,open2300-1.11,2011-02-27 03:03:00,
2011-02-26 20:13:00,39.0,21.9,29.61,WNW,292,0.0,0.0,50,0.00,,,0.00,open2300-1.11,2011-02-27 03:13:00,
2011-02-26 20:23:00,38.8,21.2,29.61,West,270,0.0,0.0,49,0.00,,,0.00,open2300-1.11,2011-02-27 03:23:00,
2011-02-26 20:33:00,38.3,21.3,29.61,West,270,0.0,0.0,50,0.00,,,0.00,open2300-1.11,2011-02-27 03:33:00,
2011-02-26 20:43:00,37.9,21.0,29.61,West,270,0.0,0.0,50,0.00,,,0.00,open2300-1.11,2011-02-27 03:43:00,
2011-02-26 20:53:00,37.8,21.2,29.61,West,270,0.0,0.0,51,0.00,,,0.00,open2300-1.11,2011-02-27 03:53:00,
2011-02-26 21:03:00,37.6,21.1,29.61,West,270,0.0,0.0,51,0.00,,,0.00,open2300-1.11,2011-02-27 04:03:00,
2011-02-26 21:13:00,37.2,21.2,29.61,East,90,4.9,4.9,52,0.00,,,0.00,open2300-1.11,2011-02-27 04:13:00,
2011-02-26 21:23:00,37.6,21.5,29.61,East,90,0.0,4.9,52,0.00,,,0.00,open2300-1.11,2011-02-27 04:23:00,
2011-02-26 21:33:00,37.2,21.2,29.61,ESE,112,0.0,0.9,52,0.00,,,0.00,open2300-1.11,2011-02-27 04:33:00,
2011-02-26 21:43:00,36.9,20.9,29.60,ESE,112,0.0,0.0,52,0.00,,,0.00,open2300-1.11,2011-02-27 04:43:00,
2011-02-26 21:53:00,36.7,21.1,29.60,East,90,0.0,4.7,53,0.00,,,0.00,open2300-1.11,2011-02-27 04:53:00,
2011-02-26 22:03:00,36.9,21.7,29.60,East,90,0.0,6.5,54,0.00,,,0.00,open2300-1.11,2011-02-27 05:03:00,
2011-02-26 22:13:00,36.9,21.7,29.60,East,90,4.0,7.6,54,0.00,,,0.00,open2300-1.11,2011-02-27 05:13:00,
2011-02-26 22:23:00,37.0,21.9,29.59,East,90,4.0,10.1,54,0.00,,,0.00,open2300-1.11,2011-02-27 05:23:00,
2011-02-26 22:33:00,37.2,21.6,29.59,East,90,6.5,11.6,53,0.00,,,0.00,open2300-1.11,2011-02-27 05:33:00,
2011-02-26 22:43:00,37.2,21.6,29.59,ENE,67,7.4,7.4,53,0.00,,,0.00,open2300-1.11,2011-02-27 05:43:00,
2011-02-26 22:53:00,37.2,21.2,29.58,SE,135,5.1,7.4,52,0.00,,,0.00,open2300-1.11,2011-02-27 05:53:00,
2011-02-26 23:03:00,37.2,21.2,29.58,East,90,5.4,9.4,52,0.00,,,0.00,open2300-1.11,2011-02-27 06:03:00,
2011-02-26 23:13:00,37.4,21.3,29.57,ENE,67,7.8,9.6,52,0.00,,,0.00,open2300-1.11,2011-02-27 06:13:00,
2011-02-26 23:23:00,37.4,21.3,29.57,SE,135,1.8,7.8,52,0.00,,,0.00,open2300-1.11,2011-02-27 06:23:00,
2011-02-26 23:33:00,37.0,20.6,29.56,East,90,6.5,6.5,51,0.00,,,0.00,open2300-1.11,2011-02-27 06:33:00,
2011-02-26 23:43:00,36.7,20.7,29.56,East,90,6.3,6.9,52,0.00,,,0.00,open2300-1.11,2011-02-27 06:43:00,
2011-02-26 23:53:00,36.5,20.5,29.55,SE,135,0.0,6.3,52,0.00,,,0.00,open2300-1.11,2011-02-27 06:53:00,